This demonstration page uses our WeatherBlox Daily Observations layout. Learn more.

Left ArrowRight Arrow

Hourly Observations for May 8, 2017

Temp ( °F °C ) Dew Point ( °F °C ) Humidity (%) Winds ( mph kmh ) Pressure ( in mb ) Visibility ( mi km ) Precip ( " mm )
12:53 am 00:53 Clear 72 22.2 48 8.9 43 43 SE 18 30 29.67 1005 10 16 0.00 0.00
1:53 am 01:53 Clear 71 21.7 49 9.4 46 46 SE 17 28 29.66 1004 10 16 0.00 0.00
2:53 am 02:53 Clear 70 21.1 49 9.4 47 47 SE 17 28 29.64 1004 10 16 0.00 0.00
3:53 am 03:53 Clear 69 20.6 51 10.6 53 53 SE 18 30 29.63 1003 10 16 0.00 0.00
4:53 am 04:53 Clear 67 19.4 52 11.1 59 59 SSE 21 33 29.65 1004 10 16 0.00 0.00
5:53 am 05:53 Clear 66 18.9 53 11.7 63 63 SSE 14 22 29.67 1005 10 16 0.00 0.00
6:53 am 06:53 Clear 64 17.8 54 12.2 70 70 SE 16 26 29.68 1005 10 16 0.00 0.00
7:53 am 07:53 Sunny 65 18.3 57 13.9 76 76 SE 14 22 29.71 1006 10 16 0.00 0.00
8:53 am 08:53 Sunny 68 20 58 14.4 70 70 SE 20 31 29.72 1007 10 16 0.00 0.00
9:53 am 09:53 Sunny 72 22.2 59 15 64 64 SE 15 24 29.73 1007 10 16 0.00 0.00
10:53 am 10:53 Sunny 76 24.4 59 15 56 56 SE 17 28 29.73 1007 10 16 0.00 0.00
11:53 am 11:53 Sunny 80 26.7 58 14.4 47 47 SSE 16 26 29.73 1007 10 16 0.00 0.00
12:53 pm 12:53 Sunny 83 28.3 56 13.3 40 40 SSE 14 22 29.71 1006 10 16 0.00 0.00
1:53 pm 13:53 Sunny 85 29.4 55 12.8 36 36 ESE 16 26 29.68 1005 10 16 0.00 0.00
2:53 pm 14:53 Sunny 89 31.7 52 11.1 28 28 SE 20 31 29.65 1004 10 16 0.00 0.00
3:53 pm 15:53 Sunny 89 31.7 54 12.2 30 30 SE 20 31 29.64 1004 10 16 0.00 0.00
4:53 pm 16:53 Sunny 89 31.7 55 12.8 31 31 ESE 24 39 29.62 1003 10 16 0.00 0.00
5:53 pm 17:53 Sunny 85 29.4 55 12.8 36 36 ESE 26 43 29.63 1004 10 16 0.00 0.00
6:53 pm 18:53 Sunny 78 25.6 59 15 52 52 ESE 24 39 29.66 1005 9 14 0.00 0.00
7:53 pm 19:53 Partly Cloudy 73 22.8 60 15.6 64 64 ESE 25 41 29.67 1005 10 16 0.00 0.03
8:15 pm 20:15 Mostly Cloudy 71 21.7 60 15.6 68 68 SE 28 44 29.68 1005 10 16 0.00 0.00
8:53 pm 20:53 Mostly Cloudy 70 21.1 59 15 68 68 SE 25 41 29.69 1006 10 16 0.00 0.00
9:53 pm 21:53 Cloudy 70 21.1 60 15.6 71 71 SE 24 39 29.71 1006 10 16 0.00 0.00
10:53 pm 22:53 Cloudy 69 20.6 60 15.6 73 73 SE 22 35 29.72 1007 10 16 0.00 0.00
11:53 pm 23:53 Cloudy 69 20.6 60 15.6 73 73 SE 23 37 29.72 1006 10 16 0.00 0.00

Powered by AerisWeather